Home   Weather   Gorleben   Past weeks

Flag for Germany Past Weather in Gorleben, Lower Saxony, Germany — Yesterday and Last 2 Weeks

Now
37 °F

Fog.


Feels Like: 34 °F
Forecast: 34 / 55 °F
Wind: 5 mph from Northwest

Location: Fassberg

Current Time: Apr 29, 2017 at 5:52:17 am

Latest Report: Apr 29, 2017 at 4:20 am


Visibility: N/A

Pressure: 29.98 "Hg

Humidity: 93%

Dew Point: 36 °F

Location of GorlebenLocation

Past Weather in Gorleben — Graph

°F

Gorleben Temperature Yesterday

Maximum temperature yesterday: 52 °F (at 1:20 pm)
Minimum temperature yesterday: 27 °F (at 5:20 am)
Average temperature yesterday: 42 °F

High & Low Weather Summary for the Past Weeks

 TemperatureHumidityPressure
High57 °F (Apr 21, 2:20 pm)100% (Apr 17, 3:20 am)30.63 "Hg (Apr 17, 3:20 am)
Low21 °F (Apr 20, 5:20 am)30% (Apr 27, 4:20 pm)29.59 "Hg (Apr 25, 5:20 am)
Average41 °F74%30.05 "Hg
* Reported Apr 14 4:20 am — Apr 29 4:20 am, Gorleben, Weather by CustomWeather, © 2017

Note: Actual official high and low records may vary slightly from our data, if they occured in-between our weather recording intervals... More about our weather records

Advertising

Gorleben Weather History for the Previous 24 Hours

Scroll right to see more
 ConditionsComfort  
Time TempWeatherWind HumidityBarometerVisibility
4:20 am
Sat, Apr 29
37 °FFog.5 mph93%29.98 "HgN/A
3:20 am39 °FFog.7 mph93%29.98 "HgN/A
2:20 am39 °FFog.2 mph93%29.95 "HgN/A
1:20 am41 °FFog.5 mph93%29.95 "HgN/A
12:20 am41 °FPassing clouds.5 mph93%29.95 "HgN/A
11:20 pm
Fri, Apr 28
43 °FPartly cloudy.7 mph93%29.95 "HgN/A
10:20 pm43 °FPassing clouds.5 mph93%29.92 "HgN/A
9:20 pm43 °FFog.No wind93%29.92 "Hg5 mi
8:40 pm45 °FFog.1 mph87%29.92 "Hg4 mi
8:20 pm45 °FLight rain. Partly sunny.5 mph87%29.92 "Hg5 mi
8:02 pm45 °FRain. Fog.6 mph87%29.92 "Hg3 mi
7:20 pm43 °FSprinkles. Partly sunny.10 mph87%29.92 "HgN/A
6:20 pm46 °FScattered showers. Broken clouds.5 mph82%29.89 "HgN/A
5:20 pm52 °FScattered showers. Broken clouds.9 mph54%29.89 "HgN/A
4:20 pm52 °FPartly sunny.13 mph54%29.89 "HgN/A
3:20 pm50 °FPartly sunny.12 mph58%29.89 "HgN/A
2:20 pm50 °FPartly sunny.12 mph54%29.89 "HgN/A
1:20 pm52 °FPartly sunny.10 mph47%29.89 "HgN/A
12:20 pm50 °FPartly sunny.10 mph50%29.89 "HgN/A
11:20 am48 °FPartly sunny.13 mph54%29.92 "HgN/A
10:20 am46 °FBroken clouds.12 mph53%29.92 "HgN/A
9:20 am46 °FScattered clouds.9 mph57%29.92 "HgN/A
8:20 am41 °FPassing clouds.7 mph66%29.92 "HgN/A
7:20 am32 °FPassing clouds.No wind87%29.92 "HgN/A
6:20 am27 °FPassing clouds.1 mph93%29.92 "HgN/A
5:20 am27 °FFog.2 mph93%29.92 "HgN/A
Weather by CustomWeather, © 2017

See weather overviewHow to use our weather pages